OBJECT AL, 61769

Orbit data source: Space-Track

You're viewing an Uncataloged Satellite

Recently launched and/or uncataloged satellites may have evolving metadata. Metadata may include but not limited to: Owner, Maufacturer, Bus, Motor, and Mission.

OBJECT AL, 61769 is a satellite in SSO that was launched on Mon, 04 Nov 2024 UTC via a SOYUZ-2-1B launch vehicle from the Vostochny Cosmodrome (VOSTO). Unknown objects in Earth's orbit typically refer to objects detected orbiting the Earth but have not yet been identified or cataloged. These objects could be anything from previously untracked satellites, spent rocket stages, debris from satellite collisions, or even natural meteoroids temporarily captured by Earth's gravity.

Loading next visibility...
Identifier
61769, 2024-199AL
Orbit
SSO
Country
Flag of TBDTBD
Related business
Flag of IROmid-e-Faza company (SpaceOmid) (IR)
Manufacturer
OMID
Mission
Operational Commercial Imaging
Bus & Motor
KOWSAR, Unknown motor
Mass
30 kg wet, 30 kg dry
Launch date (UTC)
2024-11-04 (1 year ago)
Launch vehicle
SOYUZ-2-1B
Launch site
Vostochny Cosmodrome (VOSTO)
Object type
Unknown
Shape & HBR
Box, 0.2 m
Radar Cross Section
0.100 m², Medium (>0.1 m² and < 1m²)

Expand to show TLE details & history
Last TLE update: 13 hours ago

TLE from 13 hours ago
0 OBJECT AL
1 61769U 24199AL  25312.85664494  .00035899  00000-0  88740-3 0  9997
2 61769  97.3259 181.6120 0007878  25.2277 334.9353 15.40359251100354
Epoch: 2025-11-08T20:33Z
TLE epoch observation values (Epoch: 2025-11-08T20:33:34.122Z)
Latitude
-0.00001°
Longitude
-175.06042°
Altitude
443.299 km
Speed
7.649 km/s
True Right ascension
12h 06m 26s
True Declination
0° 00' 00"
Sunlit
Object was in daylight at epoch
Visualization orbit readout
Latitude
Unknown
Longitude
Unknown
Altitude
Unknown
Speed
Unknown
Apparent Right ascension
Unknown
Apparent Declination
Unknown
Sunlit
N/A
Visualization observer readout
Local Sidereal Time
06:10:31
Azimuth
Unknown
Elevation
Unknown
Doppler factor
Unknown
Orbital elements
Apogee altitude
447.356 km
Perigee altitude
436.611 km
Semi-major axis
6,820.121 km
Eccentricity
0.00079
Inclination
97.3259°
RAAN
181.612°
Arg. of periapsis
25.2277°
True anomaly
334.89702°
Mean anomaly
334.9353°
Eccentric anomaly
334.91616°
Mean motion
3.8535 °/min
Orbital period
93.42 mins
BSTAR
0.0008874
Loading maneuver chart data...
Computing Atmospheric mass density...
Loading historical data...
Loading historical data...
Loading historical data...
Loading historical data...
Loading historical data...
Loading historical data...
Loading historical data...

Documentation

Showing up to 5 results
|